Location: ?????
(36.0096°N, 43.6640°E)
Time: 00:50:42
(UTC+00:00)

Daily predictions for brighter satellites

Satellite Brightness Start Highest point End
(mag) Time Altitude Azimuth Time Altitude Azimuth Time Altitude Azimuth
Atlas Centaur 2 3.6 01:01:40 43° SE 01:01:40 43° SE 01:07:16 10° E
NOSS 3-2 (A) 4.0 01:25:31 47° ESE 01:25:43 47° ESE 01:31:29 10° NE
Lacrosse 5 rocket 4.0 01:28:51 16° E 01:28:51 16° E 01:29:44 10° ESE
Cosmos 1937 Rocket 4.4 01:40:29 42° SSE 01:40:29 42° SSE 01:43:54 10° SSE
Cosmos 44 Rocket 4.3 01:41:52 44° SSE 01:41:52 44° SSE 01:45:22 10° SSE
USA 267 3.0 01:34:52 10° SE 01:41:24 81° SW 01:41:38 80° W
CENTAUR R/B 3.4 01:42:28 13° S 01:47:02 43° ESE 01:53:04 10° NE
SL-16 R/B 2.9 01:44:56 10° S 01:50:22 51° ESE 01:55:51 10° NNE
CZ-4B R/B 3.6 01:49:08 10° SE 01:51:12 26° ESE 01:51:12 26° ESE
Cosmos 2278 Rocket 2.1 01:54:44 78° SSW 01:54:44 78° SSW 02:00:07 10° SSE
COSMO-SKYMED 1 4.0 01:50:55 10° SE 01:54:53 36° ENE 01:58:06 14° N
Cosmos 2237 Rocket 3.5 02:01:14 26° N 02:01:14 26° N 02:03:56 10° N
Cosmos 2208 Rocket 4.2 02:02:11 60° NNW 02:02:11 60° NNW 02:06:47 10° NNE
CZ-4B R/B 4.1 01:58:46 10° NNE 02:02:14 38° E 02:05:50 10° SSE
H-2A R/B 4.4 01:59:09 36° WSW 02:04:56 66° S 08:04:48 10° SE
Cosmos 1241 Rocket 4.4 02:05:40 46° NW 02:07:44 75° WSW 02:14:11 10° SSE
CZ-3 Stage 3 2.3 02:10:45 33° SSE 02:10:45 33° SSE 02:12:26 10° ESE
OAO 3 Copernicus 4.1 02:09:49 73° SW 02:10:14 81° S 02:15:17 10° E
CZ-2C R/B 1.4 02:10:41 72° SSE 02:10:41 72° SSE 02:14:36 10° E
SL-24 R/B 3.9 02:06:58 10° SSE 02:11:01 88° W 02:11:07 85° NW
ERBS 3.7 02:12:19 34° SE 02:12:33 34° SE 02:15:34 10° ENE
ERS-2 3.8 02:09:37 10° SE 02:12:53 32° ENE 02:15:59 11° N
H-2A R/B 4.4 02:10:40 10° S 02:11:11 13° SSW 02:11:11 13° SSW
SEDSat Delta rocket 4.4 02:16:10 34° SW 02:18:53 56° S 02:25:31 10° E
OAO 2 Rocket 3.6 02:18:23 45° SW 02:18:55 47° SSW 02:23:36 10° SE
USA 238 DEB 3.5 02:16:13 19° SW 02:21:02 78° WNW 02:27:49 10° NNE
USA 238 3.5 02:16:12 19° SW 02:21:08 79° WNW 02:27:56 10° NNE
H-2A R/B 3.6 02:17:36 10° NNE 02:21:14 49° E 02:24:54 10° S
FALCON 9 DEB 4.2 02:25:20 32° NNE 02:25:20 32° NNE 02:27:14 10° NE
Cosmos 1626 Rocket 3.4 02:23:16 25° NNW 02:25:52 79° W 02:30:17 10° S
Lacrosse 4 Rocket 3.0 02:28:05 22° N 02:28:05 22° N 02:29:59 10° N
Meteor PRIRODA 3.6 02:23:06 10° NNE 02:26:44 77° ESE 02:30:21 10° S
Cosmos 1703 3.1 02:28:12 36° NNW 02:29:45 82° W 02:33:39 10° S
Cosmos 1300 3.5 02:29:03 10° S 02:32:44 52° E 02:36:27 10° NNE
FALCON 9 DEB 4.2 02:33:55 28° N 02:33:55 28° N 02:35:46 10° NNE
Cosmos 2297 4.5 02:27:25 10° NNW 02:33:02 53° ENE 02:38:37 10° SE
Cosmos 1315 Rocket 3.7 02:31:58 10° S 02:35:43 50° E 02:39:31 10° NNE
MOS 1 Rocket 3.4 02:31:16 10° SSE 02:36:13 81° ENE 02:40:52 10° N
SAR-Lupe-4 4.5 02:33:28 10° SSE 02:36:55 48° ENE 02:40:24 10° N
deb Chang Zheng 4 3.5 02:35:48 10° N 02:39:57 57° WNW 02:44:05 10° SSW
SL-8 R/B 4.5 02:39:18 31° WSW 02:40:09 33° SW 02:44:28 10° SSE
Meteor 1-21 Rocket 4.5 02:35:39 10° NNW 02:41:10 47° W 02:46:44 10° SSW
SKYMED 2 3.5 02:38:34 10° S 02:42:49 60° WSW 02:46:43 13° NNW
[s.n.47389] 2.2 02:47:11 82° WSW 02:47:17 88° NW 02:49:52 10° NE
[s.n.47399] 2.2 02:47:13 82° WSW 02:47:19 88° NW 02:49:54 10° NE
[s.n.47393] 2.2 02:47:15 82° WSW 02:47:21 88° NW 02:49:56 10° NE
[s.n.47353] 2.2 02:47:19 81° WSW 02:47:25 87° NW 02:50:00 10° NE
[s.n.47355] 2.2 02:47:22 80° WSW 02:47:29 87° NW 02:50:04 10° NE
[s.n.47365] 2.2 02:47:25 80° WSW 02:47:31 87° NW 02:50:07 10° NE
[s.n.47383] 2.2 02:47:30 80° WSW 02:47:36 87° NW 02:50:12 10° NE
[s.n.47400] 2.2 02:47:28 76° WSW 02:47:38 87° NW 02:50:15 10° NE
[s.n.47378] 2.2 02:47:35 80° WSW 02:47:42 87° NW 02:50:17 10° NE
[s.n.47395] 2.2 02:47:38 80° WSW 02:47:45 87° NW 02:50:19 10° NE
[s.n.47379] 2.2 02:47:44 79° WSW 02:47:51 86° NW 02:50:26 10° NE
[s.n.47370] 2.2 02:47:44 79° WSW 02:47:51 86° NW 02:50:26 10° NE
[s.n.47351] 2.2 02:47:44 76° WSW 02:47:54 86° NW 02:50:31 10° NE
[s.n.47394] 2.2 02:47:50 79° WSW 02:47:57 86° NW 02:50:33 10° NE
[s.n.47354] 2.2 02:47:54 79° WSW 02:48:01 86° NW 02:50:36 10° NE
[s.n.47360] 2.2 02:47:55 79° WSW 02:48:03 86° NW 02:50:38 10° NE
[s.n.47369] 2.2 02:48:00 78° WSW 02:48:08 85° NW 02:50:43 10° NE
[s.n.47406] 2.2 02:48:02 78° WSW 02:48:10 85° NW 02:50:45 10° NE
[s.n.47384] 2.2 02:48:05 78° WSW 02:48:13 85° NW 02:50:48 10° NE
[s.n.47356] 2.2 02:48:08 77° WSW 02:48:16 85° NW 02:50:51 10° NE
[s.n.47407] 2.2 02:48:11 77° WSW 02:48:20 85° NW 02:50:55 10° NE
[s.n.47385] 2.2 02:48:10 74° WSW 02:48:22 85° NW 02:50:58 10° NE
[s.n.47358] 2.2 02:48:18 77° WSW 02:48:26 84° NW 02:51:02 10° NE
[s.n.47398] 2.2 02:48:20 77° WSW 02:48:29 84° NW 02:51:04 10° NE
[s.n.47361] 2.2 02:48:23 76° WSW 02:48:33 84° NW 02:51:08 10° NE
[s.n.47392] 2.2 02:48:25 76° WSW 02:48:35 84° NW 02:51:10 10° NE
[s.n.47382] 2.2 02:48:29 76° WSW 02:48:38 84° NW 02:51:13 10° NE
[s.n.47359] 2.2 02:48:29 73° WSW 02:48:41 84° NW 02:51:17 10° NE
[s.n.47401] 2.2 02:48:36 76° WSW 02:48:45 84° NW 02:51:21 10° NE
[s.n.47380] 2.2 02:48:34 72° WSW 02:48:46 84° NW 02:51:24 10° NE
[s.n.47386] 2.2 02:48:42 75° WSW 02:48:52 83° NW 02:51:27 10° NE
[s.n.47408] 2.2 02:48:41 71° WSW 02:48:54 83° NW 02:51:31 10° NE
Atlas Centaur 2 3.4 02:44:15 22° WSW 02:48:56 49° S 02:56:56 10° ESE
[s.n.47396] 2.2 02:48:48 75° WSW 02:48:57 83° NW 02:51:33 10° NE
[s.n.47391] 2.2 02:48:49 74° WSW 02:49:00 83° NW 02:51:35 10° NE
[s.n.47402] 2.2 02:48:53 74° WSW 02:49:03 83° NW 02:51:38 10° NE
[s.n.47404] 2.2 02:48:56 74° WSW 02:49:07 83° NW 02:51:42 10° NE
[s.n.47403] 2.2 02:48:59 73° WSW 02:49:10 82° NW 02:51:45 10° NE
[s.n.47381] 2.2 02:49:02 73° WSW 02:49:13 82° NW 02:51:48 10° NE
[s.n.47372] 2.2 02:49:06 73° WSW 02:49:17 82° NW 02:51:52 10° NE
[s.n.47405] 2.2 02:49:08 73° WSW 02:49:19 82° NW 02:51:54 10° NE
[s.n.47368] 2.2 02:49:13 73° WSW 02:49:25 82° NW 02:52:00 10° NE
[s.n.47350] 2.2 02:49:15 72° WSW 02:49:26 82° NW 02:52:02 10° NE
[s.n.47349] 2.2 02:49:13 69° WSW 02:49:28 82° NW 02:52:05 10° NE
[s.n.47367] 2.2 02:49:19 71° WSW 02:49:32 81° NW 02:52:08 10° NE
[s.n.47373] 2.2 02:49:20 69° WSW 02:49:34 81° NW 02:52:12 10° NE
[s.n.47377] 2.2 02:49:23 69° WSW 02:49:37 81° NW 02:52:15 10° NE
[s.n.47371] 2.2 02:49:25 68° WSW 02:49:40 81° NW 02:52:18 10° NE
[s.n.47362] 2.2 02:49:28 68° WSW 02:49:42 81° NW 02:52:20 10° NE
[s.n.47363] 2.2 02:49:32 68° WSW 02:49:47 81° NW 02:52:24 10° NE
[s.n.47374] 2.2 02:49:37 70° WSW 02:49:51 80° NW 02:52:27 10° NE
[s.n.47357] 2.2 02:49:42 70° WSW 02:49:54 80° NW 02:52:30 10° NE
Cosmos 1346 Rocket 3.2 02:45:58 10° N 02:49:56 63° E 02:53:52 10° SSE
[s.n.47390] 2.2 02:49:45 70° WSW 02:49:58 80° NW 02:52:33 10° NE
[s.n.47387] 2.2 02:49:47 70° WSW 02:50:01 80° NW 02:52:36 10° NE
[s.n.47375] 2.2 02:49:48 70° WSW 02:50:01 80° NW 02:52:36 10° NE
[s.n.47376] 2.2 02:49:47 67° WSW 02:50:03 80° NW 02:52:40 10° NE
[s.n.47366] 2.2 02:49:57 69° WSW 02:50:10 80° NW 02:52:46 10° NE
[s.n.47352] 2.2 02:49:59 69° WSW 02:50:13 79° NW 02:52:50 10° NE
[s.n.47364] 2.2 02:50:03 68° WSW 02:50:17 79° NW 02:52:54 10° NE
[s.n.47388] 2.2 02:50:06 68° WSW 02:50:21 79° NW 02:52:57 10° NE
[s.n.47397] 2.2 02:50:12 69° WSW 02:50:26 79° NW 02:53:01 10° NE
Cosmos 1758 Rocket 3.7 02:47:07 10° N 02:51:35 76° E 02:56:01 10° S
SAR-Lupe-1 4.0 02:49:41 10° SSE 02:53:15 83° ENE 02:56:51 10° N
ATLAS CENTAUR R/B 3.4 02:55:32 10° NNW 02:55:32 10° NNW 02:55:40 10° NNW
Cosmos 1092 Rocket 3.9 02:50:52 10° NNW 02:56:59 68° W 03:03:07 10° S
Cosmos 2279 Rocket 4.3 02:51:12 10° S 02:57:24 72° E 03:03:38 10° N
Chandra Rocket (1) 3.3 02:55:44 16° WSW 02:58:13 24° SSW 03:00:37 10° SE
Cosmos 2150 Rocket 4.0 02:54:49 10° NNW 03:00:13 75° WSW 03:05:37 10° S
Cosmos 1689 Rocket 1.8 02:57:36 10° S 03:00:29 81° WSW 03:03:23 10° NNW
Cosmos 1726 Rocket 3.9 02:56:23 10° S 03:00:39 68° E 03:04:56 10° NNE
BREEZE-M DEB (TANK) 3.5 03:01:49 22° WNW 03:03:26 32° N 03:10:35 10° NE
Cosmos 2084 Rocket 3.5 03:00:45 14° NW 03:04:34 82° WSW 03:09:07 10° SSE
Lacrosse 5 rocket 2.5 03:04:31 20° WSW 03:05:17 21° WSW 03:08:05 10° S
Meteor 2-19 Rocket 4.5 02:59:35 10° N 03:05:42 85° E 03:11:47 10° S
Spot 2 4.4 03:02:04 10° NNE 03:06:06 64° ESE 03:10:14 10° S
Cosmos 1340 3.8 03:07:12 21° WNW 03:08:12 23° W 03:11:13 10° SW
CZ-4B DEB 4.4 03:02:41 10° NNE 03:08:16 81° ESE 03:13:48 10° S
SJ-7 4.4 03:04:22 10° N 03:08:25 57° WNW 03:12:21 10° SSW
Cosmos 1602 Rocket 4.2 03:04:31 10° NNW 03:08:34 34° W 03:12:36 10° SSW
YAOGAN 6 2.8 03:09:22 10° N 03:12:58 49° WNW 03:16:30 10° SSW
CZ-2C R/B 3.3 03:11:22 10° SSE 03:16:28 56° ENE 03:21:42 10° N
NOSS 3-2 (A) 4.3 03:13:00 14° W 03:16:48 26° NW 03:22:00 10° NNE
Cosmos 2098 Rocket 3.1 03:11:44 10° N 03:16:58 69° W 03:21:02 10° S
Cosmos 1943 Rocket 2.3 03:12:41 10° NNW 03:18:23 80° ENE 03:24:02 10° SSE
Cosmos 1634 Rocket 4.2 03:13:49 10° SSW 03:19:39 44° W 03:25:33 10° N
Centaur D AC-29 4.1 03:19:53 10° SSW 03:21:21 11° S 03:22:34 10° SSE
PSLV R/B 4.0 03:17:36 10° N 03:21:31 51° WNW 03:25:29 10° SSW
SL-4 R/B 4.1 03:20:26 10° NNW 03:21:32 11° NNW 03:22:38 10° N
Okean O Rocket 2.5 03:18:48 10° NNE 03:23:03 53° E 03:27:17 10° S
SMAP 3.2 03:18:31 10° NNE 03:23:12 80° ESE 03:27:50 10° S
Cosmos 1825 Rocket 3.6 03:19:49 10° NNW 03:24:14 63° W 03:28:37 10° S
CZ-4B R/B 3.5 03:23:11 10° WSW 03:24:19 12° W 03:24:19 12° W
Cosmos 773 Rocket 4.5 03:20:04 10° S 03:25:15 66° ESE 03:30:26 10° NNE
Envisat 3.3 03:23:38 10° N 03:28:25 43° WNW 03:33:11 10° SW
Cosmos 2369 Rocket 2.9 03:23:00 10° NNW 03:28:30 54° ENE 03:33:56 10° SE
Meteor 2-10 Rocket 4.1 03:22:47 10° S 03:28:35 75° E 03:34:21 10° NNE
Cosmos 1125 Rocket 3.7 03:24:40 10° NNW 03:29:51 54° WSW 03:34:59 10° S
NOSS 3-2 (C) 4.0 03:25:06 10° WSW 03:30:08 34° NW 03:35:47 10° NNE
COSMO-SKYMED 1 4.1 03:28:22 10° SW 03:31:07 16° W 03:33:53 10° NW
H-2A R/B 2.6 03:26:39 10° N 03:31:11 81° WNW 03:35:37 10° SSW
Radarsat Rocket 4.4 03:25:40 10° NNE 03:33:03 86° ESE 03:39:30 10° SSW
SL-16 R/B 3.4 03:30:36 10° WSW 03:34:46 21° WNW 03:38:58 10° N
Cosmos 1939 Rocket 4.1 03:31:19 10° NNE 03:35:03 44° E 03:38:43 10° S
CENTAUR R/B 3.3 03:32:41 10° WSW 03:37:48 30° NW 03:43:44 10° NNE
Cosmos 2228 3.9 03:34:24 10° SW 03:38:02 27° WNW 03:41:39 10° NNW
BREEZE-M DEB (TANK) 3.3 03:34:11 10° WSW 03:38:11 29° NW 03:40:17 10° NNE
Cosmos 1943 3.2 03:33:19 10° SSW 03:39:01 84° WNW 03:44:45 10° NNE
CZ-4B R/B 3.3 03:37:05 10° NNE 03:42:44 89° WNW 03:48:15 10° SSW
CORIOLIS 4.1 03:41:17 10° N 03:46:39 80° WNW 03:51:59 10° SSW
